Weather reports worldwide

Advertisment
Logan Botanic Garden, United Kingdom (99193): temperature & dewpoint: 10.12.2017 05:00:00 - 16.12.2017 05:00:00 (GMT)Logan Botanic Garden, United Kingdom (99193): temperature -20cm: 10.12.2017 05:00:00 - 16.12.2017 05:00:00 (GMT)Logan Botanic Garden, United Kingdom (99193): precipitation: 10.12.2017 05:00:00 - 16.12.2017 05:00:00 (GMT)
Date & Time tt [°C] td [°C] tt -20cm [°C] rr [mm]
16.12.2017 05:00:00 - - - 1,6
16.12.2017 04:00:00 5,2 3,5 - 1,4
16.12.2017 03:00:00 5,8 2,0 - 0,0
16.12.2017 02:00:00 4,7 0,6 - 0,0
16.12.2017 01:00:00 4,0 -0,2 - 0,0
16.12.2017 00:00:00 3,1 -0,6 - 0,0
15.12.2017 23:00:00 3,5 0,0 - 0,0
15.12.2017 22:00:00 4,3 1,2 - 0,0
15.12.2017 21:00:00 4,2 0,1 - 0,0
15.12.2017 20:00:00 4,0 0,6 - 0,0
15.12.2017 19:00:00 4,6 0,9 - 0,0
15.12.2017 18:00:00 - - - 0,0
15.12.2017 17:00:00 3,8 0,6 - 0,0
15.12.2017 16:00:00 4,3 1,3 - 0,0
15.12.2017 15:00:00 5,3 1,6 - 0,0
15.12.2017 14:00:00 6,2 1,9 - 0,0
15.12.2017 13:00:00 6,4 1,2 - 0,0
15.12.2017 12:00:00 6,3 1,0 - 0,0
15.12.2017 11:00:00 5,8 1,4 - 0,0
15.12.2017 10:00:00 5,6 1,1 - 0,0
15.12.2017 09:00:00 5,1 1,4 5,2 0,0
15.12.2017 08:00:00 4,7 2,0 - 0,0
15.12.2017 07:00:00 4,0 2,0 - 0,0
15.12.2017 06:00:00 3,4 1,7 - 0,0
15.12.2017 05:00:00 3,0 0,9 - 0,0
15.12.2017 04:00:00 2,8 0,4 - 0,0
15.12.2017 03:00:00 3,2 0,2 - 0,0
15.12.2017 02:00:00 2,7 0,4 - 0,0
15.12.2017 01:00:00 3,5 1,8 - 0,0
15.12.2017 00:00:00 3,9 2,4 - 0,0
14.12.2017 23:00:00 5,1 3,0 - 1,2
14.12.2017 22:00:00 7,2 4,3 - 0,4
14.12.2017 21:00:00 6,6 4,1 - 0,2
14.12.2017 20:00:00 5,4 3,8 - 0,4
14.12.2017 19:00:00 5,5 3,7 - 1,0
14.12.2017 18:00:00 6,0 4,1 - 2,2
14.12.2017 17:00:00 5,6 2,9 - 0,4
14.12.2017 16:00:00 5,1 1,6 - 0,0
14.12.2017 15:00:00 5,7 2,1 - 0,0
14.12.2017 14:00:00 5,5 3,3 - 0,0
14.12.2017 13:00:00 4,7 3,2 - 0,2
14.12.2017 12:00:00 4,6 3,2 - 0,8
14.12.2017 11:00:00 5,0 2,8 - 0,0
14.12.2017 10:00:00 4,4 2,6 - 0,2
14.12.2017 09:00:00 4,4 2,5 5,2 0,0
14.12.2017 08:00:00 4,5 2,1 - 0,0
14.12.2017 07:00:00 4,1 2,3 - 0,0
14.12.2017 06:00:00 4,0 2,1 - 0,0
14.12.2017 05:00:00 3,9 2,1 - 0,2
14.12.2017 04:00:00 4,3 2,6 - 0,0
14.12.2017 03:00:00 4,1 2,4 - 0,0
14.12.2017 02:00:00 3,8 2,2 - 0,0
14.12.2017 01:00:00 3,8 2,1 - 0,0
14.12.2017 00:00:00 3,6 1,5 - 0,0
13.12.2017 23:00:00 3,3 1,2 - 0,0
13.12.2017 22:00:00 3,3 1,1 - 0,0
13.12.2017 21:00:00 3,7 0,8 - 0,0
13.12.2017 20:00:00 3,4 1,0 - 0,0
13.12.2017 19:00:00 3,7 1,7 - 0,0
13.12.2017 18:00:00 4,2 1,7 - 0,0
13.12.2017 17:00:00 4,2 1,3 - 0,0
13.12.2017 16:00:00 4,1 1,4 - 0,0
13.12.2017 15:00:00 4,1 0,8 - 0,0
13.12.2017 14:00:00 5,1 0,8 - 0,0
13.12.2017 13:00:00 5,2 1,7 - 0,0
13.12.2017 12:00:00 5,9 2,1 - 0,0
13.12.2017 11:00:00 5,6 2,8 - 0,0
13.12.2017 10:00:00 5,6 3,6 - 0,6
13.12.2017 09:00:00 7,2 4,9 4,9 0,2
13.12.2017 08:00:00 7,4 5,0 - 0,0
13.12.2017 07:00:00 7,4 5,2 - 0,0
13.12.2017 06:00:00 7,2 4,9 - 0,0
13.12.2017 05:00:00 7,0 4,2 - 0,0
13.12.2017 04:00:00 6,9 4,7 - 0,0
13.12.2017 03:00:00 6,6 4,5 - 0,0
13.12.2017 02:00:00 6,3 4,3 - 0,0
13.12.2017 01:00:00 6,4 4,3 - 0,0
13.12.2017 00:00:00 6,2 4,0 - 0,0
12.12.2017 23:00:00 6,2 3,8 - 0,0
12.12.2017 22:00:00 6,5 4,0 - 0,0
12.12.2017 21:00:00 6,8 4,3 - 0,0
12.12.2017 20:00:00 5,8 4,1 - 0,0
12.12.2017 19:00:00 6,2 4,4 - 0,0
12.12.2017 18:00:00 6,6 5,5 - 1,6
12.12.2017 17:00:00 6,1 4,9 - 0,8
12.12.2017 16:00:00 6,6 3,8 - 0,0
12.12.2017 15:00:00 6,3 3,0 - 0,0
12.12.2017 14:00:00 6,7 4,0 - 0,0
12.12.2017 13:00:00 6,9 3,8 - 0,0
12.12.2017 12:00:00 7,0 2,0 - 0,0
12.12.2017 11:00:00 5,6 3,6 - 0,0
12.12.2017 10:00:00 5,0 4,0 - 0,6
12.12.2017 09:00:00 3,2 3,0 4,9 0,0
12.12.2017 08:00:00 2,0 1,7 - 0,0
12.12.2017 07:00:00 1,1 0,7 - 0,0
12.12.2017 06:00:00 1,5 1,0 - 0,0
12.12.2017 05:00:00 0,4 -0,3 - 0,0
12.12.2017 04:00:00 1,7 1,1 - 0,0
12.12.2017 03:00:00 0,1 -0,8 - 0,0
12.12.2017 02:00:00 1,0 -0,3 - 0,0
12.12.2017 01:00:00 1,1 -0,5 - 0,0
12.12.2017 00:00:00 2,2 -0,6 - 0,0
11.12.2017 23:00:00 2,6 -0,3 - 0,0
11.12.2017 22:00:00 1,4 -0,5 - 0,0
11.12.2017 21:00:00 2,1 -0,8 - 0,0
11.12.2017 20:00:00 2,7 0,5 - 0,0
11.12.2017 19:00:00 3,2 0,5 - 0,0
11.12.2017 18:00:00 3,1 0,6 - 0,0
11.12.2017 17:00:00 3,2 1,0 - 0,0
11.12.2017 16:00:00 2,8 0,9 - 0,0
11.12.2017 15:00:00 3,7 1,4 - 0,0
11.12.2017 14:00:00 4,1 1,7 - 0,0
11.12.2017 13:00:00 3,9 1,5 - 0,0
11.12.2017 12:00:00 3,1 1,3 - 0,2
11.12.2017 11:00:00 1,8 1,0 - 0,8
11.12.2017 10:00:00 0,3 -0,1 - 0,0
11.12.2017 09:00:00 -0,8 -1,2 5,5 0,0
11.12.2017 08:00:00 -0,2 -0,6 - 0,0
11.12.2017 07:00:00 -0,7 -1,1 - 0,0
11.12.2017 06:00:00 -1,8 -2,4 - 0,0
11.12.2017 05:00:00 -2,2 -2,8 - 0,0
11.12.2017 04:00:00 -2,4 -3,1 - 0,0
11.12.2017 03:00:00 -2,0 -2,8 - 0,0
11.12.2017 02:00:00 -2,0 -2,9 - 0,0
11.12.2017 01:00:00 -2,6 -3,8 - 0,0
11.12.2017 00:00:00 -3,1 -4,6 - 0,0
10.12.2017 23:00:00 -2,8 -5,3 - 0,0
10.12.2017 22:00:00 -2,2 -5,3 - 0,0
10.12.2017 21:00:00 -1,7 -6,8 - 0,0
10.12.2017 20:00:00 -1,1 -6,6 - 0,0
10.12.2017 19:00:00 -1,2 -6,3 - 0,0
10.12.2017 18:00:00 -1,1 -5,6 - 0,0
10.12.2017 17:00:00 -1,2 -4,9 - 0,0
10.12.2017 16:00:00 -0,1 -5,2 - 0,0
10.12.2017 15:00:00 0,5 -4,5 - 0,0
10.12.2017 14:00:00 1,1 -4,6 - 0,0
10.12.2017 13:00:00 -0,2 -4,7 - 0,0
10.12.2017 12:00:00 0,7 -4,6 - 0,2
10.12.2017 11:00:00 1,4 -3,4 - 0,4
10.12.2017 10:00:00 0,6 -3,3 - 0,0
10.12.2017 09:00:00 0,7 -2,9 6,0 0,0
10.12.2017 08:00:00 1,4 -2,0 - 0,2
10.12.2017 07:00:00 1,6 -2,1 - 0,2
10.12.2017 06:00:00 2,0 -0,9 - 0,2
10.12.2017 05:00:00 2,0 -0,6 - 0,4

tt = temperature
td = dewpoint
tt -20cm = temperature -20cm
rr = precipitation

Next stations